Find Starlink 36267

NORAD ID: 67198 Int'l Des: 2025-304 Owner: SPXS Country: US Constellation: starlink operational
LEOCIRCULAR

リアルタイム位置

3D地球を読み込み中...

Starlink 36267について

説明を読み込み中...

次回通過

Passes for default location (London). Set your location on the main map for personalized predictions.

高度履歴

Loading altitude history...

軌道要素

1 67198U 25304G 26107.14545028 .00002034 00000-0 17817-3 0 9996
2 67198 70.0005 77.5491 0002949 271.9112 88.1709 14.98344362 19619
Epoch: Apr 17, 2026 • Age: 15 hours

現在のステータス

高度 574.6 km
速度 7.57 km/s
衛星直下点 18.51°N, 123.74°E
打ち上げ日 Dec 17, 2025
運用期間 0.3 years
タイプ internet

技術仕様

分類 Payload
質量 575.00 kg
乾燥質量 530.00 kg
総質量 575.00 kg
長さ 0.30 m
直径 4.10 m
スパン 29.00 m
形状 Box + pan
製造者 SPXS
バスタイプ Starlink V2MO
フェーズステータス In Orbit
所有者/国 SPXS/US

Most Searched